LiveATC.Net - Listen to live air traffic control over the Internet!


ICAO: ENML  IATA: MOL   Airport: Molde Airport
City: Molde
Country: Norway   Continent: Europe
ENML METAR Weather: ENML 140950Z 06005KT 9999 FEW016 SCT070 02/00 Q1006
ENML Flight Activity (FlightAware)

ENML Gnd/Twr/App/Center
Feed Status: UP   Listeners: 0
Listen in your browser - HTML5 player (in browser, HTML5)
Click here to listen with your own player (launches your MP3 player)
Archive Access: ENML Gnd/Twr/App/Center
FacilityFrequency
Molde Info119.950

NOTICE

Unauthorized use prohibited. See LiveATC.net Terms of Service


Airport/ARTCC Code
Frequency Search
(e.g., 124.400, 128.75)
Site-wide search
 


Browse LiveATC Feeds
Top 50 LiveATC Feeds
LiveATC Feed Map
Bad Weather Areas

LiveATC FAQ
Offer LiveATC feed
Contact LiveATC.net
Press Inquiries

LiveATC on iPhone
LiveATC on Android

Windows Phone
Windows 8/10

LiveATC Mobile
(Mobile browser)

ATC Audio Archives
Interesting Recordings

LiveATC Forums


Home Page
About LiveATC.net
Make a Donation
Terms of Use
Privacy Policy

Canadian Air Freqs

AIRMETs/SIGMETs

FAA Airport Status
Nat'l Airspace Status
Arrival Demand Charts


Server Software By:
Icecast.org
Liquidsoap